Weather History for KDAY - April, 2012

Change the Weather History Date:

Saturday, April 7, 2012

  Actual Average Record
Temperature  
Mean Temperature 49 °F 49 °F  
Max Temperature 65 °F 59 °F 85 °F (2001)
Min Temperature 32 °F 39 °F 17 °F (1982)
Degree Days  
Heating Degree Days 16 17  
Month to date heating degree days 88 124  
Since 1 July heating degree days 4239 5163  
Cooling Degree Days 0 0  
Month to date cooling degree days 0 0  
Year to date cooling degree days 30 0  
Moisture  
Dew Point 19 °F    
Average Humidity 39    
Maximum Humidity 64    
Minimum Humidity 13    
Precipitation  
Precipitation 0.00 in 0.13 in 2.23 in (2000)
Month to date precipitation T 0.89  
Year to date precipitation 8.66 9.18  
Snow  
Snow 0.00 in 0.00 in 1.80 in (1985)
Month to date snowfall 0.0 0.3  
Since 1 July snowfall 9.2 23.0  
Snow Depth 0.00 in    
Sea Level Pressure  
Sea Level Pressure 30.28 in    
Wind  
Wind Speed 3 mph (SE)    
Max Wind Speed 12 mph    
Max Gust Speed 14 mph    
Visibility 10 miles    
Events      
T = Trace of Precipitation, MM = Missing Value Source: NWS Daily Summary

Daily Weather History Graph

Daily Weather History Graph

Search for Another Location

Airport or City:

Trip Planner

Search our weather history database for the weather conditions in past years. The results will help you decide how hot, cold, wet, or windy it might be!

Date:

Astronomy

Apr. 07, 2012 Rise Set
Actual Time 7:10 AM EDT 8:07 PM EDT
Civil Twilight 6:43 AM EDT 8:35 PM EDT
Nautical Twilight 6:10 AM EDT 9:08 PM EDT
Astronomical Twilight 5:36 AM EDT 9:42 PM EDT
Moon 9:40 PM EDT (4/7) 7:22 AM EDT (4/7)
Length of Visible Light 13h 52m
Length of Day
12h 57m
Full, 99% of the Moon is Illuminated
Apr 7
Full
Apr 13
Last Quarter
Apr 21
New
Apr 29
First Quarter
May 5
Full

Hourly Weather History & Observations

Time (EDT) Temp. Windchill Dew Point Humidity Pressure Visibility Wind Dir Wind Speed Gust Speed Precip Events Conditions
12:56 AM 41.0 °F 38.0 °F 21.0 °F 45% 30.28 in 10.0 mi ENE 4.6 mph - N/A   Clear
1:56 AM 39.0 °F 34.8 °F 21.9 °F 50% 30.27 in 10.0 mi East 5.8 mph - N/A   Clear
2:56 AM 37.9 °F - 21.0 °F 51% 30.27 in 10.0 mi Calm Calm - N/A   Clear
3:56 AM 36.0 °F 32.1 °F 21.0 °F 55% 30.27 in 10.0 mi East 4.6 mph - N/A   Clear
4:56 AM 36.0 °F 33.3 °F 21.0 °F 55% 30.27 in 10.0 mi ESE 3.5 mph - N/A   Clear
5:56 AM 35.1 °F - 21.9 °F 59% 30.30 in 10.0 mi Calm Calm - N/A   Clear
6:56 AM 34.0 °F - 21.0 °F 59% 30.31 in 10.0 mi Calm Calm - N/A   Clear
7:56 AM 33.1 °F - 23.0 °F 66% 30.34 in 10.0 mi Calm Calm - N/A   Clear
8:56 AM 42.1 °F - 28.9 °F 60% 30.35 in 10.0 mi Calm Calm - N/A   Clear
9:56 AM 48.9 °F - 19.0 °F 31% 30.36 in 10.0 mi ESE 5.8 mph - N/A   Clear
10:56 AM 53.1 °F - 21.9 °F 30% 30.35 in 10.0 mi East 11.5 mph - N/A   Clear
11:56 AM 55.9 °F - 21.0 °F 26% 30.34 in 10.0 mi ESE 8.1 mph - N/A   Clear
12:56 PM 57.0 °F - 17.1 °F 21% 30.33 in 10.0 mi SE 4.6 mph - N/A   Clear
1:56 PM 60.1 °F - 19.0 °F 20% 30.32 in 10.0 mi Calm Calm - N/A   Clear
2:56 PM 62.1 °F - 14.0 °F 15% 30.30 in 10.0 mi Calm Calm - N/A   Partly Cloudy
3:56 PM 63.0 °F - 10.9 °F 13% 30.26 in 10.0 mi Calm Calm - N/A   Scattered Clouds
4:56 PM 63.0 °F - 12.0 °F 14% 30.25 in 10.0 mi Calm Calm - N/A   Mostly Cloudy
5:56 PM 63.0 °F - 12.9 °F 14% 30.25 in 10.0 mi Calm Calm - N/A   Mostly Cloudy
6:56 PM 62.1 °F - 16.0 °F 17% 30.23 in 10.0 mi Calm Calm - N/A   Scattered Clouds
7:56 PM 60.1 °F - 12.0 °F 15% 30.22 in 10.0 mi SSW 3.5 mph - N/A   Mostly Cloudy
8:56 PM 57.9 °F - 12.9 °F 17% 30.22 in 10.0 mi SSW 4.6 mph - N/A   Mostly Cloudy
9:56 PM 53.1 °F - 18.0 °F 25% 30.22 in 10.0 mi SW 4.6 mph - N/A   Scattered Clouds
10:56 PM 55.0 °F - 18.0 °F 23% 30.20 in 10.0 mi SSW 4.6 mph - N/A   Mostly Cloudy
11:56 PM 55.0 °F - 19.9 °F 25% 30.17 in 10.0 mi South 3.5 mph - N/A   Mostly Cloudy